period_start,C,m1,H,J0,J1,J2,J3,J4,J5,JA,JB,JC,JD,JJ,JK,JN,#
2016-01-14 00:04:51,0.35,1.12,0.00,15.54,20.07,23.67,15.37,47.65,1046.84,2060.04,3087.53,2897.61,3248.67,599.76,629.44,10.40,0000 0000 0000 0000 000000
2016-01-14 00:09:52,0.37,1.14,0.00,15.53,20.06,23.66,15.47,47.83,1046.77,2060.04,3079.64,2892.64,3243.32,599.97,629.57,10.45,0000 0000 0000 0000 000000
2016-01-14 00:14:53,0.36,1.16,0.00,15.52,20.04,23.63,15.36,47.90,1046.76,2060.20,3072.42,2888.02,3238.21,599.95,629.63,10.50,0000 0000 0000 0000 000000
2016-01-14 00:19:54,0.33,1.18,0.00,15.50,20.03,23.60,15.35,47.92,1046.76,2060.50,3066.11,2883.85,3233.58,599.82,629.50,10.55,0000 0000 0000 0000 000000
2016-01-14 00:24:55,0.29,1.20,0.00,15.49,20.02,23.62,15.38,47.83,1046.81,2060.79,3060.45,2880.16,3229.22,599.89,629.58,10.61,0000 0000 0000 0000 000000
2016-01-14 00:29:57,0.25,1.21,0.00,15.47,20.02,23.61,15.36,47.81,1046.70,2060.87,3055.29,2876.95,3225.36,599.83,629.51,10.66,0000 0000 0000 0000 000000
2016-01-14 00:34:58,0.23,1.22,0.00,15.45,20.00,23.62,15.35,47.70,1046.63,2060.97,3050.45,2873.93,3221.94,599.85,629.63,10.71,0000 0000 0000 0000 000000
2016-01-14 00:39:59,0.21,1.23,0.00,15.44,19.99,23.61,15.32,47.69,1046.62,2060.98,3046.27,2871.22,3218.82,599.40,629.26,10.76,0000 0000 0000 0000 000000
2016-01-14 00:45:00,0.19,1.24,0.00,15.43,19.99,23.61,15.38,47.88,1046.85,2060.98,3042.28,2868.61,3215.85,599.86,629.65,10.81,0000 0000 0000 0000 000000
2016-01-14 00:50:02,0.23,1.25,0.00,15.41,19.98,23.61,15.35,47.89,1046.84,2060.98,3037.87,2865.78,3212.58,599.66,629.55,10.86,0000 0000 0000 0000 000000
2016-01-14 00:55:03,0.23,1.26,0.00,15.41,19.97,23.61,15.44,47.91,1046.83,2060.98,3033.29,2862.78,3209.15,600.02,629.97,10.91,0000 0000 0000 0000 000000
2016-01-14 01:00:04,0.25,1.28,0.00,15.39,19.97,23.60,15.40,47.85,1046.81,2060.97,3028.44,2859.53,3205.38,599.72,629.82,10.96,0000 0000 0000 0000 000000
2016-01-14 01:05:06,0.26,1.29,0.00,15.37,19.97,23.60,15.38,47.88,1046.70,2060.98,3023.62,2856.13,3201.19,599.75,629.75,11.01,0000 0000 0000 0000 000000
2016-01-14 01:10:07,0.29,1.30,0.00,15.37,19.95,23.58,15.45,47.82,1046.53,2060.98,3017.91,2852.39,3197.04,600.07,629.84,11.06,0000 0000 0000 0000 000000
2016-01-14 01:15:09,0.33,1.32,0.00,15.36,19.94,23.61,15.41,47.73,1046.45,2060.97,3011.32,2848.26,3192.56,600.11,629.80,11.11,0000 0000 0000 0000 000000
2016-01-14 01:20:10,0.32,1.34,0.00,15.35,19.93,23.57,15.43,47.84,1046.42,2060.98,3004.84,2844.06,3187.97,600.21,629.86,11.16,0000 0000 0000 0000 000000
2016-01-14 01:25:11,0.29,1.35,0.00,15.33,19.92,23.50,15.23,47.80,1046.40,2060.98,2998.72,2840.19,3183.80,599.57,629.37,11.21,0000 0000 0000 0000 000000
2016-01-14 01:30:13,0.27,1.37,0.00,15.32,19.89,23.49,15.48,47.80,1046.40,2060.99,2993.13,2836.69,3179.92,600.30,630.02,11.26,0000 0000 0000 0000 000000
2016-01-14 01:35:14,0.27,1.38,0.00,15.32,19.88,23.48,15.42,47.84,1046.40,2060.99,2987.85,2833.38,3176.20,600.21,630.10,11.31,0000 0000 0000 0000 000000
2016-01-14 01:40:15,0.30,1.39,0.00,15.31,19.86,23.46,15.39,47.76,1046.34,2060.99,2981.94,2829.59,3171.98,600.04,629.92,11.36,0000 0000 0000 0000 000000
2016-01-14 01:45:16,0.32,1.41,0.00,15.29,19.84,23.47,15.37,47.77,1046.33,2060.99,2975.82,2825.53,3167.42,600.15,630.03,11.41,0000 0000 0000 0000 000000
2016-01-14 01:50:18,0.31,1.43,0.00,15.27,19.82,23.39,15.38,47.73,1046.40,2061.00,2969.73,2821.54,3162.82,599.94,629.94,11.46,0000 0000 0000 0000 000000
2016-01-14 01:55:19,0.30,1.44,0.00,15.27,19.81,23.40,15.39,47.84,1046.39,2061.01,2964.01,2817.67,3158.26,599.66,629.59,11.51,0000 0000 0000 0000 000000
2016-01-14 02:00:20,0.25,1.45,0.00,15.27,19.79,23.42,15.37,47.73,1046.35,2061.01,2958.89,2814.37,3154.17,599.84,629.73,11.56,0000 0000 0000 0000 000000
2016-01-14 02:05:21,0.19,1.47,0.00,15.25,19.79,23.41,15.44,47.71,1046.23,2061.00,2954.80,2811.79,3151.31,600.18,630.08,11.61,0000 0000 0000 0000 000000
2016-01-14 02:10:22,0.17,1.48,0.00,15.24,19.77,23.40,15.42,47.73,1046.24,2061.02,2951.17,2809.64,3149.00,600.19,630.12,11.66,0000 0000 0000 0000 000000
2016-01-14 02:15:24,0.19,1.49,0.00,15.22,19.75,23.38,15.38,47.68,1046.18,2061.02,2947.40,2807.30,3146.33,600.05,629.96,11.71,0000 0000 0000 0000 000000
2016-01-14 02:20:25,0.25,1.50,0.00,15.22,19.74,23.32,15.25,47.64,1046.09,2061.03,2942.86,2804.26,3142.86,599.58,629.47,11.76,0000 0000 0000 0000 000000
2016-01-14 02:25:26,0.28,1.51,0.00,15.21,19.72,23.37,15.35,47.72,1046.19,2061.04,2937.46,2800.89,3139.11,599.71,629.67,11.81,0000 0000 0000 0000 000000
2016-01-14 02:30:28,0.26,1.53,0.00,15.18,19.70,23.32,15.43,47.71,1046.24,2061.08,2932.14,2797.52,3135.47,600.24,630.34,11.86,0000 0000 0000 0000 000000
2016-01-14 02:35:29,0.29,1.54,0.00,15.18,19.69,23.29,15.33,47.70,1046.32,2061.26,2927.03,2794.14,3131.82,599.88,630.06,11.91,0000 0000 0000 0000 000000
2016-01-14 02:40:31,0.26,1.55,0.00,15.15,19.67,23.29,15.49,47.74,1046.21,2061.31,2922.06,2790.84,3127.98,600.02,630.15,11.96,0000 0000 0000 0000 000000
2016-01-14 02:45:32,0.29,1.57,0.00,15.14,19.65,23.32,15.35,47.80,1046.03,2061.61,2917.14,2787.65,3124.37,600.11,630.07,12.01,0000 0000 0000 0000 000000
2016-01-14 02:50:33,0.23,1.58,0.00,15.14,19.64,23.28,15.40,47.82,1045.95,2061.83,2912.67,2784.90,3121.32,600.11,630.13,12.06,0000 0000 0000 0000 000000
2016-01-14 02:55:34,0.22,1.59,0.00,15.13,19.62,23.21,15.34,47.77,1045.93,2061.94,2908.52,2782.27,3118.44,599.99,630.04,12.11,0000 0000 0000 0000 000000
2016-01-14 03:00:35,0.20,1.60,0.00,15.11,19.60,23.20,15.44,47.81,1045.92,2061.98,2904.61,2779.75,3115.61,600.14,630.09,12.16,0000 0000 0000 0000 000000
2016-01-14 03:05:36,0.21,1.61,0.00,15.11,19.59,23.19,15.41,47.74,1045.94,2061.97,2900.61,2777.18,3112.71,599.91,629.93,12.21,0000 0000 0000 0000 000000
2016-01-14 03:10:38,0.20,1.62,0.00,15.10,19.57,23.18,15.40,47.74,1045.95,2061.99,2896.65,2774.60,3109.80,600.11,630.10,12.26,0000 0000 0000 0000 000000
2016-01-14 03:15:39,0.21,1.63,0.00,15.10,19.56,23.15,15.36,47.81,1045.94,2061.99,2892.73,2772.13,3106.95,599.86,629.95,12.31,0000 0000 0000 0000 000000
2016-01-14 03:20:41,0.20,1.64,0.00,15.07,19.54,23.17,15.43,47.88,1046.00,2061.99,2889.06,2769.62,3104.05,600.04,630.23,12.36,0000 0000 0000 0000 000000
2016-01-14 03:25:42,0.19,1.65,0.00,15.04,19.53,23.15,15.33,47.79,1045.94,2061.99,2885.37,2767.31,3101.37,599.80,629.96,12.41,0000 0000 0000 0000 000000
2016-01-14 03:30:43,0.19,1.66,0.00,15.04,19.52,23.12,15.40,47.77,1045.93,2061.99,2881.72,2765.06,3098.76,600.16,630.48,12.46,0000 0000 0000 0000 000000
2016-01-14 03:35:44,0.18,1.67,0.00,15.01,19.50,23.13,15.36,47.85,1045.92,2061.99,2878.13,2762.71,3096.24,600.19,630.43,12.51,0000 0000 0000 0000 000000
2016-01-14 03:40:46,0.22,1.68,0.00,15.01,19.49,23.08,15.35,47.80,1045.92,2062.00,2874.27,2760.20,3093.40,599.98,630.30,12.56,0000 0000 0000 0000 000000
2016-01-14 03:45:47,0.21,1.69,0.00,15.00,19.47,23.08,15.44,47.87,1045.92,2062.02,2869.93,2757.45,3090.39,600.03,630.23,12.61,0000 0000 0000 0000 000000
2016-01-14 03:50:49,0.22,1.71,0.00,15.00,19.46,23.09,15.41,47.78,1045.92,2062.03,2865.84,2754.83,3087.46,600.21,630.42,12.66,0000 0000 0000 0000 000000
2016-01-14 03:55:50,0.22,1.72,0.00,14.95,19.44,23.08,15.46,47.80,1045.92,2062.08,2861.72,2752.21,3084.47,600.16,630.46,12.71,0000 0000 0000 0000 000000
2016-01-14 04:00:51,0.20,1.73,0.00,14.96,19.44,23.07,15.44,47.78,1045.92,2062.29,2858.23,2749.99,3081.51,599.75,629.98,12.76,0000 0000 0000 0000 000000
2016-01-14 04:05:53,0.21,1.74,0.00,14.96,19.43,23.05,15.31,47.77,1045.92,2062.26,2854.46,2747.47,3078.56,599.75,630.02,12.81,0000 0000 0000 0000 000000
2016-01-14 04:10:54,0.22,1.75,0.00,14.94,19.42,23.04,15.39,47.95,1045.91,2062.23,2850.24,2744.96,3075.90,600.19,630.55,12.86,0000 0000 0000 0000 000000
2016-01-14 04:15:55,0.24,1.76,0.00,14.91,19.41,23.02,15.43,48.09,1045.91,2062.64,2846.17,2742.55,3073.36,600.01,630.50,12.91,0000 0000 0000 0000 000000
2016-01-14 04:20:56,0.17,1.77,0.00,14.92,19.39,22.98,15.38,47.96,1045.90,2062.91,2842.98,2740.39,3070.85,599.73,630.15,12.97,0000 0000 0000 0000 000000
2016-01-14 04:25:58,0.19,1.78,0.00,14.90,19.39,22.99,15.37,47.89,1045.66,2062.88,2839.87,2738.15,3068.12,599.94,630.24,13.02,0000 0000 0000 0000 000000
2016-01-14 04:30:59,0.18,1.79,0.00,14.88,19.39,23.02,15.49,47.75,1045.44,2062.79,2836.40,2735.92,3065.37,600.58,630.82,13.07,0000 0000 0000 0000 000000
2016-01-14 04:36:00,0.18,1.80,0.00,14.89,19.37,23.00,15.42,47.85,1045.45,2062.78,2832.91,2733.71,3062.89,600.06,630.33,13.12,0000 0000 0000 0000 000000
2016-01-14 04:41:01,0.16,1.81,0.00,14.87,19.37,22.95,15.40,47.92,1045.49,2062.68,2829.38,2731.55,3060.47,600.03,630.29,13.17,0000 0000 0000 0000 000000
2016-01-14 04:46:03,0.18,1.82,0.00,14.87,19.35,22.96,15.39,47.95,1045.45,2062.79,2826.24,2729.53,3058.09,600.02,630.21,13.22,0000 0000 0000 0000 000000
2016-01-14 04:51:04,0.17,1.83,0.00,14.85,19.34,22.94,15.52,47.97,1045.44,2062.81,2823.06,2727.54,3055.77,600.40,630.66,13.27,0000 0000 0000 0000 000000
2016-01-14 04:56:05,0.18,1.83,0.00,14.84,19.32,22.97,15.48,48.04,1045.49,2062.89,2819.66,2725.61,3053.62,600.28,630.75,13.32,0000 0000 0000 0000 000000
2016-01-14 05:01:06,0.15,1.84,0.00,14.82,19.30,22.95,15.32,47.92,1045.69,2062.95,2816.84,2723.74,3051.52,599.68,630.24,13.37,0000 0000 0000 0000 000000
2016-01-14 05:06:07,0.14,1.85,0.00,14.79,19.29,22.93,15.36,47.80,1045.78,2062.96,2814.19,2722.04,3049.59,600.19,630.82,13.42,0000 0000 0000 0000 000000
2016-01-14 05:11:09,0.14,1.86,0.00,14.76,19.27,22.85,15.29,47.75,1045.70,2062.98,2811.49,2720.47,3047.77,600.00,630.65,13.47,0000 0000 0000 0000 000000
2016-01-14 05:16:10,0.14,1.87,0.00,14.76,19.24,22.86,15.45,47.88,1045.71,2062.98,2808.81,2718.78,3045.96,599.95,630.49,13.52,0000 0000 0000 0000 000000
2016-01-14 05:21:11,0.13,1.87,0.00,14.77,19.23,22.85,15.45,47.83,1045.83,2062.99,2806.14,2717.23,3044.34,599.72,630.42,13.57,0000 0000 0000 0000 000000
2016-01-14 05:26:12,0.13,1.88,0.00,14.74,19.22,22.82,15.46,47.81,1045.81,2062.99,2803.75,2715.71,3042.52,600.13,630.93,13.62,0000 0000 0000 0000 000000
2016-01-14 05:31:14,0.12,1.88,0.00,14.74,19.19,22.79,15.38,47.77,1045.88,2063.00,2801.48,2714.29,3040.76,600.09,630.83,13.67,0000 0000 0000 0000 000000
2016-01-14 05:36:15,0.13,1.89,0.00,14.73,19.19,22.84,15.43,47.85,1045.58,2063.01,2799.28,2712.75,3038.95,599.96,630.68,13.72,0000 0000 0000 0000 000000
2016-01-14 05:41:16,0.12,1.90,0.00,14.71,19.17,22.79,15.41,47.73,1045.47,2063.01,2797.11,2711.38,3037.08,600.27,630.96,13.77,0000 0000 0000 0000 000000
2016-01-14 05:46:17,0.14,1.90,0.00,14.68,19.17,22.82,15.37,47.63,1045.56,2063.01,2794.48,2709.80,3035.42,600.05,630.78,13.82,0000 0000 0000 0000 000000
2016-01-14 05:51:19,0.12,1.91,0.00,14.68,19.15,22.78,15.35,47.75,1045.48,2063.01,2792.17,2708.34,3033.62,599.73,630.40,13.87,0000 0000 0000 0000 000000
2016-01-14 05:56:21,0.14,1.92,0.00,14.67,19.14,22.75,15.43,47.77,1045.45,2063.04,2789.77,2706.79,3031.80,600.17,630.83,13.92,0000 0000 0000 0000 000000
2016-01-14 06:01:22,0.14,1.93,0.00,14.67,19.13,22.70,15.37,47.76,1045.44,2063.05,2787.08,2705.24,3030.04,599.99,630.66,13.97,0000 0000 0000 0000 000000
2016-01-14 06:06:23,0.15,1.93,0.00,14.66,19.12,22.72,15.43,47.86,1045.44,2063.12,2784.05,2703.56,3028.24,599.88,630.55,14.02,0000 0000 0000 0000 000000
2016-01-14 06:11:25,0.16,1.94,0.00,14.64,19.09,22.71,15.43,47.91,1045.47,2063.15,2781.26,2701.81,3026.28,600.10,630.71,14.07,0000 0000 0000 0000 000000
2016-01-14 06:16:26,0.19,1.95,0.00,14.63,19.08,22.70,15.41,47.90,1045.62,2063.63,2778.36,2700.13,3024.44,600.30,631.19,14.12,0000 0000 0000 0000 000000
2016-01-14 06:21:28,0.20,1.96,0.00,14.61,19.07,22.66,15.31,47.79,1045.73,2063.92,2775.28,2698.22,3022.26,599.84,630.82,14.17,0000 0000 0000 0000 000000
2016-01-14 06:26:29,0.19,1.97,0.00,14.59,19.04,22.71,15.40,48.00,1045.73,2063.98,2771.91,2696.15,3019.92,599.90,630.70,14.22,0000 0000 0000 0000 000000
2016-01-14 06:31:30,0.18,1.98,0.00,14.57,19.04,22.66,15.47,48.01,1045.88,2063.98,2768.62,2693.95,3017.32,599.84,631.01,14.27,0000 0000 0000 0000 000000
2016-01-14 06:36:32,0.15,1.99,0.00,14.56,19.02,22.66,15.39,47.76,1045.91,2063.99,2765.97,2692.17,3015.08,600.01,631.23,14.32,0000 0000 0000 0000 000000
2016-01-14 06:41:33,0.13,2.00,0.00,14.56,19.02,22.66,15.45,47.72,1045.91,2063.99,2763.44,2690.64,3013.26,600.23,631.46,14.37,0000 0000 0000 0000 000000
2016-01-14 06:46:34,0.15,2.00,0.00,14.54,19.00,22.62,15.39,47.78,1045.92,2063.99,2760.63,2688.94,3011.34,600.03,631.42,14.42,0000 0000 0000 0000 000000
2016-01-14 06:51:36,0.18,2.01,0.00,14.53,18.99,22.63,15.48,47.83,1045.92,2063.99,2757.45,2686.96,3009.03,600.07,631.31,14.47,0000 0000 0000 0000 000000
2016-01-14 06:56:37,0.16,2.02,0.00,14.50,18.98,22.63,15.50,47.88,1045.92,2063.99,2754.25,2685.05,3006.94,600.21,631.55,14.52,0000 0000 0000 0000 000000
2016-01-14 07:01:38,0.20,2.03,0.00,14.50,18.97,22.62,15.38,47.82,1045.90,2063.99,2750.78,2682.87,3004.44,600.12,631.49,14.57,0000 0000 0000 0000 000000
2016-01-14 07:06:39,0.26,2.04,0.00,14.52,18.96,22.60,15.44,48.11,1045.89,2063.99,2746.18,2679.95,3001.26,599.85,631.11,14.62,0000 0000 0000 0000 000000
2016-01-14 07:11:41,0.22,2.05,0.00,14.48,18.94,22.58,15.35,48.05,1045.85,2063.99,2741.88,2677.29,2998.21,599.66,630.97,14.67,0000 0000 0000 0000 000000
2016-01-14 07:16:42,0.21,2.07,0.00,14.49,18.94,22.59,15.43,48.03,1045.84,2064.00,2738.13,2674.82,2995.35,600.03,631.35,14.72,0000 0000 0000 0000 000000
2016-01-14 07:21:43,0.19,2.08,0.00,14.47,18.94,22.59,15.36,48.05,1045.91,2064.00,2734.49,2672.53,2992.73,599.78,631.14,14.77,0000 0000 0000 0000 000000
2016-01-14 07:26:44,0.17,2.08,0.00,14.46,18.93,22.58,15.40,48.04,1045.90,2064.01,2731.16,2670.54,2990.53,599.75,631.10,14.82,0000 0000 0000 0000 000000
2016-01-14 07:31:46,0.18,2.09,0.00,14.45,18.92,22.56,15.40,48.02,1045.75,2064.00,2727.98,2668.53,2988.18,599.88,631.06,14.87,0000 0000 0000 0000 000000
2016-01-14 07:36:47,0.17,2.10,0.00,14.43,18.92,22.56,15.38,48.02,1045.54,2064.04,2724.97,2666.65,2986.00,600.02,631.28,14.92,0000 0000 0000 0000 000000
2016-01-14 07:41:48,0.19,2.11,0.00,14.44,18.92,22.53,15.42,48.21,1045.45,2064.02,2721.67,2664.57,2983.63,599.86,631.12,14.97,0000 0000 0000 0000 000000
2016-01-14 07:46:49,0.20,2.12,0.00,14.44,18.92,22.52,15.35,48.03,1045.43,2064.01,2718.09,2662.27,2980.96,599.74,630.87,15.02,0000 0000 0000 0000 000000
2016-01-14 07:51:51,0.27,2.13,0.00,14.41,18.91,22.56,15.37,47.96,1045.43,2064.01,2713.66,2659.39,2977.55,599.95,631.15,15.08,0000 0000 0000 0000 000000
2016-01-14 07:56:52,0.24,2.15,0.00,14.40,18.90,22.56,15.35,48.06,1045.44,2064.00,2709.05,2656.50,2974.30,599.82,631.11,15.13,0000 0000 0000 0000 000000
2016-01-14 08:01:53,0.36,2.16,0.00,14.41,18.89,22.55,15.55,48.18,1045.43,2064.01,2703.44,2652.76,2970.08,600.22,631.41,15.18,0000 0000 0000 0000 000000
2016-01-14 08:06:55,0.24,2.18,0.00,14.40,18.89,22.53,15.52,48.02,1045.43,2064.01,2698.55,2649.58,2966.53,600.11,631.22,15.23,0000 0000 0000 0000 000000
2016-01-14 08:11:56,0.25,2.19,0.00,14.39,18.89,22.49,15.34,47.89,1045.31,2064.01,2694.25,2646.84,2963.43,599.85,631.01,15.28,0000 0000 0000 0000 000000
2016-01-14 08:16:57,0.24,2.20,0.00,14.39,18.87,22.49,15.36,47.99,1045.25,2064.01,2689.88,2644.06,2960.29,599.73,630.88,15.33,0000 0000 0000 0000 000000
2016-01-14 08:21:58,0.23,2.22,0.00,14.40,18.87,22.49,15.44,48.02,1045.16,2064.00,2685.84,2641.37,2957.28,599.84,630.98,15.38,0000 0000 0000 0000 000000
2016-01-14 08:27:00,0.24,2.23,0.00,14.40,18.85,22.49,15.35,47.95,1045.13,2064.01,2681.65,2638.63,2954.11,599.82,630.83,15.43,0000 0000 0000 0000 000000
2016-01-14 08:32:01,0.30,2.24,0.00,14.39,18.84,22.50,15.38,48.01,1045.18,2064.02,2676.87,2635.58,2950.66,599.95,631.09,15.48,0000 0000 0000 0000 000000
2016-01-14 08:37:02,0.33,2.26,0.00,14.37,18.83,22.49,15.46,47.98,1045.10,2064.02,2671.07,2631.80,2946.48,599.99,631.04,15.53,0000 0000 0000 0000 000000
2016-01-14 08:42:04,0.26,2.27,0.00,14.36,18.82,22.42,15.50,47.94,1045.31,2064.03,2666.08,2628.62,2943.02,600.24,631.44,15.58,0000 0000 0000 0000 000000
2016-01-14 08:47:05,0.26,2.29,0.00,14.36,18.80,22.44,15.47,47.97,1045.10,2064.10,2661.80,2625.97,2940.02,600.15,631.35,15.63,0000 0000 0000 0000 000000
2016-01-14 08:52:07,0.29,2.30,0.00,14.34,18.79,22.43,15.33,47.86,1044.99,2064.21,2656.99,2622.87,2936.33,599.70,630.82,15.68,0000 0000 0000 0000 000000
2016-01-14 08:57:08,0.16,2.31,0.00,14.34,18.78,22.42,15.43,48.02,1044.95,2064.14,2653.54,2620.82,2933.95,599.85,630.96,15.73,0000 0000 0000 0000 000000
2016-01-14 09:02:09,0.20,2.32,0.00,14.30,18.77,22.41,15.42,47.95,1044.95,2064.16,2650.25,2618.74,2931.52,599.99,631.22,15.78,0000 0000 0000 0000 000000
2016-01-14 09:07:10,0.23,2.33,0.00,14.29,18.75,22.39,15.45,48.02,1044.94,2064.37,2646.51,2616.35,2928.89,600.06,631.28,15.83,0000 0000 0000 0000 000000
2016-01-14 09:12:11,0.16,2.34,0.00,14.30,18.74,22.36,15.45,47.95,1044.94,2064.38,2643.26,2614.48,2926.89,600.13,631.32,15.88,0000 0000 0000 0000 000000
2016-01-14 09:17:13,0.20,2.35,0.00,14.28,18.73,22.39,15.36,48.05,1044.94,2064.70,2640.80,2612.63,2924.50,599.82,631.05,15.93,0000 0000 0000 0000 000000
2016-01-14 09:22:14,0.19,2.36,0.00,14.26,18.72,22.34,15.42,47.98,1044.94,2064.73,2637.46,2610.57,2922.20,599.94,631.29,15.98,0000 0000 0000 0000 000000
2016-01-14 09:27:15,0.19,2.37,0.00,14.24,18.71,22.32,15.44,47.92,1044.94,2064.82,2634.27,2608.65,2920.08,600.03,631.25,16.03,0000 0000 0000 0000 000000
2016-01-14 09:32:17,0.18,2.38,0.00,14.24,18.69,22.34,15.43,47.96,1044.94,2064.91,2631.18,2606.79,2918.04,599.62,630.93,16.08,0000 0000 0000 0000 000000
2016-01-14 09:37:18,0.14,2.39,0.00,14.23,18.68,22.34,15.50,48.20,1044.93,2064.97,2628.40,2605.18,2916.31,600.29,631.65,16.13,0000 0000 0000 0000 000000
2016-01-14 09:42:19,0.13,2.40,0.00,14.20,18.67,22.28,15.45,48.23,1044.94,2064.98,2626.21,2603.76,2914.68,599.89,631.26,16.18,0000 0000 0000 0000 000000
2016-01-14 09:47:20,0.14,2.40,0.00,14.22,18.65,22.28,15.42,48.35,1044.94,2064.99,2623.95,2602.27,2912.87,600.03,631.48,16.23,0000 0000 0000 0000 000000
2016-01-14 09:52:22,0.17,2.41,0.00,14.22,18.64,22.26,15.36,48.38,1044.94,2064.99,2621.16,2600.41,2910.68,599.88,631.23,16.28,0000 0000 0000 0000 000000
2016-01-14 09:57:23,0.19,2.42,0.00,14.20,18.64,22.27,15.48,48.27,1044.94,2064.99,2617.87,2598.35,2908.30,600.09,631.44,16.33,0000 0000 0000 0000 000000
2016-01-14 10:02:24,0.19,2.43,0.00,14.19,18.63,22.23,15.38,48.22,1044.94,2064.99,2614.87,2596.26,2905.89,599.75,631.02,16.38,0000 0000 0000 0000 000000
2016-01-14 10:07:26,0.19,2.44,0.00,14.17,18.62,22.21,15.46,48.40,1044.94,2064.99,2611.50,2594.19,2903.54,599.84,631.02,16.43,0000 0000 0000 0000 000000
2016-01-14 10:12:27,0.22,2.45,0.00,14.15,18.62,22.24,15.45,48.39,1044.94,2064.99,2607.84,2591.85,2900.91,600.02,631.50,16.48,0000 0000 0000 0000 000000
2016-01-14 10:17:28,0.27,2.46,0.00,14.15,18.62,22.22,15.50,48.38,1044.94,2064.99,2603.46,2589.00,2897.74,600.21,631.76,16.53,0000 0000 0000 0000 000000
2016-01-14 10:22:30,0.30,2.48,0.00,14.14,18.62,22.28,15.45,48.41,1044.94,2065.00,2598.41,2585.88,2894.20,599.86,631.46,16.58,0000 0000 0000 0000 000000
2016-01-14 10:27:31,0.33,2.50,0.00,14.15,18.62,22.26,15.41,48.39,1044.94,2065.00,2592.98,2582.49,2890.40,600.15,631.69,16.63,0000 0000 0000 0000 000000
2016-01-14 10:32:32,0.37,2.51,0.00,14.14,18.62,22.27,15.49,48.43,1044.94,2065.00,2587.14,2578.54,2885.75,600.26,631.89,16.68,0000 0000 0000 0000 000000
2016-01-14 10:37:33,0.52,2.54,0.00,14.12,18.62,22.25,15.46,48.36,1044.84,2065.00,2579.40,2573.44,2880.07,600.15,631.61,16.73,0000 0000 0000 0000 000000
2016-01-14 10:42:35,0.52,2.56,0.00,14.12,18.62,22.25,15.35,48.26,1044.66,2065.00,2571.04,2567.87,2873.96,599.57,631.20,16.78,0000 0000 0000 0000 000000
2016-01-14 10:47:36,0.48,2.59,0.00,14.10,18.62,22.27,15.52,48.33,1044.69,2065.00,2563.27,2562.64,2868.07,600.14,631.65,16.83,0000 0000 0000 0000 000000
2016-01-14 10:52:38,0.43,2.61,0.00,14.11,18.60,22.25,15.49,48.22,1044.76,2064.99,2556.20,2557.92,2862.61,600.14,631.62,16.88,0000 0000 0000 0000 000000
2016-01-14 10:57:39,0.37,2.63,0.00,14.09,18.59,22.23,15.38,48.16,1044.54,2064.99,2549.86,2553.96,2858.25,600.01,631.48,16.93,0000 0000 0000 0000 000000
2016-01-14 11:02:41,0.30,2.65,0.00,14.06,18.59,22.24,15.44,48.17,1044.47,2064.99,2544.59,2550.67,2854.65,599.77,631.04,16.98,0000 0000 0000 0000 000000
2016-01-14 11:07:42,0.22,2.66,0.00,14.09,18.57,22.16,15.46,48.20,1044.47,2064.99,2540.76,2548.24,2851.84,600.03,631.40,17.03,0000 0000 0000 0000 000000
2016-01-14 11:12:43,0.18,2.67,0.00,14.08,18.57,22.20,15.42,48.19,1044.47,2064.99,2537.65,2546.28,2849.61,600.08,631.51,17.08,0000 0000 0000 0000 000000
2016-01-14 11:17:45,0.17,2.68,0.00,14.07,18.56,22.18,15.47,48.38,1044.45,2064.99,2534.82,2544.54,2847.68,600.23,631.61,17.13,0000 0000 0000 0000 000000
2016-01-14 11:22:47,0.17,2.69,0.00,14.06,18.54,22.15,15.39,48.25,1044.45,2064.99,2532.02,2542.88,2845.79,600.01,631.39,17.18,0000 0000 0000 0000 000000
2016-01-14 11:27:48,0.12,2.69,0.00,14.05,18.54,22.19,15.45,48.26,1044.44,2065.01,2529.85,2541.58,2844.23,600.35,631.76,17.23,0000 0000 0000 0000 000000
2016-01-14 11:32:50,0.19,2.70,0.00,14.04,18.53,22.16,15.39,48.19,1044.34,2065.01,2527.18,2539.74,2842.05,599.76,631.08,17.28,0000 0000 0000 0000 000000
2016-01-14 11:37:51,0.21,2.71,0.00,14.05,18.52,22.16,15.46,48.11,1044.29,2065.04,2523.93,2537.63,2839.57,599.88,631.24,17.33,0000 0000 0000 0000 000000
2016-01-14 11:42:52,0.24,2.73,0.00,14.06,18.52,22.15,15.48,48.21,1044.19,2065.03,2520.14,2535.15,2836.71,600.15,631.42,17.38,0000 0000 0000 0000 000000
2016-01-14 11:47:53,0.25,2.74,0.00,14.03,18.52,22.14,15.49,48.18,1044.07,2065.04,2516.23,2532.63,2833.98,600.09,631.34,17.43,0000 0000 0000 0000 000000
2016-01-14 11:52:55,0.16,2.75,0.00,14.04,18.51,22.14,15.49,48.26,1043.98,2065.02,2513.29,2530.79,2831.86,600.01,631.16,17.48,0000 0000 0000 0000 000000
2016-01-14 11:57:56,0.13,2.76,0.00,14.02,18.49,22.11,15.57,48.28,1044.05,2065.01,2511.09,2529.39,2830.25,600.16,631.51,17.53,0000 0000 0000 0000 000000
2016-01-14 12:02:57,0.10,2.76,0.00,14.00,18.49,22.10,15.52,48.33,1044.10,2065.02,2509.30,2528.24,2828.97,600.26,631.57,17.58,0000 0000 0000 0000 000000
2016-01-14 12:07:58,0.10,2.77,0.00,14.00,18.48,22.14,15.48,48.34,1044.08,2065.03,2507.68,2527.30,2827.86,600.27,631.53,17.63,0000 0000 0000 0000 000000
2016-01-14 12:13:00,0.11,2.77,0.00,14.01,18.47,22.05,15.47,48.34,1044.08,2065.07,2505.97,2526.23,2826.66,600.13,631.47,17.68,0000 0000 0000 0000 000000
2016-01-14 12:18:01,0.09,2.78,0.00,14.01,18.47,22.06,15.47,48.16,1044.06,2065.08,2504.61,2525.20,2825.31,599.84,631.04,17.73,0000 0000 0000 0000 000000
2016-01-14 12:23:03,0.10,2.78,0.00,14.01,18.46,22.02,15.29,48.15,1044.19,2065.12,2502.81,2524.12,2824.11,599.78,631.13,17.78,0000 0000 0000 0000 000000
2016-01-14 12:28:04,0.13,2.79,0.00,13.99,18.44,22.03,15.39,48.32,1044.10,2065.17,2500.81,2522.97,2822.88,600.02,631.38,17.83,0000 0000 0000 0000 000000
2016-01-14 12:33:05,0.16,2.79,0.00,13.99,18.44,22.08,15.37,48.34,1044.04,2065.27,2498.58,2521.70,2821.46,599.91,631.25,17.88,0000 0000 0000 0000 000000
2016-01-14 12:38:06,0.13,2.80,0.00,13.98,18.42,22.03,15.43,48.38,1044.07,2065.57,2496.64,2520.55,2820.31,599.88,631.23,17.93,0000 0000 0000 0000 000000
2016-01-14 12:43:07,0.08,2.81,0.00,13.97,18.42,22.03,15.47,48.43,1044.05,2065.84,2495.85,2519.76,2819.02,600.03,631.46,17.98,0000 0000 0000 0000 000000
2016-01-14 12:48:08,0.11,2.81,0.00,13.96,18.41,22.07,15.40,48.28,1043.98,2065.81,2494.46,2518.70,2817.71,600.09,631.50,18.03,0000 0000 0000 0000 000000
2016-01-14 12:53:09,0.11,2.82,0.00,13.96,18.40,22.05,15.51,48.32,1043.96,2065.91,2492.88,2517.55,2816.39,599.86,631.20,18.08,0000 0000 0000 0000 000000
2016-01-14 12:58:10,0.15,2.82,0.00,13.95,18.39,22.01,15.49,48.28,1043.96,2065.89,2490.50,2516.10,2814.74,600.10,631.42,18.13,0000 0000 0000 0000 000000